TimeCST,TemperatureF,Dew PointF,Humidity,Sea Level PressureIn,VisibilityMPH,Wind Direction,Wind SpeedMPH,Gust SpeedMPH,PrecipitationIn,Events,Conditions,WindDirDegrees,DateUTC
12:11 AM,32.0,28.4,87,29.69,4.0,South,4.6,-,N/A,,Haze,170,2013-01-11 06:11:00
12:31 AM,32.0,28.4,87,29.68,3.0,South,5.8,-,N/A,,Haze,170,2013-01-11 06:31:00
12:51 AM,32.0,30.2,93,29.67,3.0,South,5.8,-,N/A,,Overcast,170,2013-01-11 06:51:00
1:11 AM,32.0,30.2,93,29.66,2.0,South,5.8,-,N/A,,Overcast,170,2013-01-11 07:11:00
1:31 AM,33.8,30.2,87,29.66,2.5,South,4.6,-,N/A,,Haze,180,2013-01-11 07:31:00
1:51 AM,33.8,30.2,87,29.64,2.5,South,4.6,-,N/A,,Haze,170,2013-01-11 07:51:00
2:11 AM,33.8,30.2,87,29.64,3.0,South,5.8,-,N/A,,Haze,180,2013-01-11 08:11:00
2:31 AM,33.8,30.2,87,29.63,5.0,South,5.8,-,N/A,,Haze,170,2013-01-11 08:31:00
2:51 AM,33.8,30.2,87,29.61,3.0,South,6.9,-,N/A,,Overcast,170,2013-01-11 08:51:00
3:11 AM,33.8,30.2,87,29.59,2.5,South,6.9,-,N/A,,Haze,170,2013-01-11 09:11:00
3:31 AM,33.8,30.2,87,29.59,2.5,South,8.1,-,N/A,,Overcast,180,2013-01-11 09:31:00
3:51 AM,33.8,30.2,87,29.58,3.0,South,8.1,-,N/A,,Overcast,180,2013-01-11 09:51:00
4:11 AM,33.8,30.2,87,29.57,2.5,South,6.9,-,N/A,,Overcast,180,2013-01-11 10:11:00
4:31 AM,33.8,30.2,87,29.56,2.5,South,5.8,-,N/A,,Overcast,190,2013-01-11 10:31:00
4:51 AM,33.8,30.2,87,29.55,2.0,South,6.9,-,N/A,Rain,Light Rain,180,2013-01-11 10:51:00
5:11 AM,33.8,30.2,87,29.55,2.5,South,8.1,-,0.01,Rain,Light Rain,180,2013-01-11 11:11:00
5:31 AM,33.8,30.2,87,29.54,2.5,South,6.9,-,0.01,Rain,Light Rain,190,2013-01-11 11:31:00
5:51 AM,33.8,30.2,87,29.54,3.0,South,5.8,-,0.01,Rain,Light Rain,190,2013-01-11 11:51:00
6:11 AM,33.8,30.2,87,29.53,4.0,South,4.6,-,N/A,Rain,Rain,170,2013-01-11 12:11:00
6:31 AM,33.8,30.2,87,29.53,3.0,South,4.6,-,0.01,Rain,Light Rain,180,2013-01-11 12:31:00
6:51 AM,33.8,30.2,87,29.53,7.0,South,4.6,-,0.01,,Light Drizzle,180,2013-01-11 12:51:00
7:11 AM,33.8,30.2,87,29.53,5.0,South,4.6,-,N/A,Rain,Light Rain,190,2013-01-11 13:11:00
7:31 AM,33.8,30.2,87,29.54,3.0,South,4.6,-,N/A,Rain,Light Rain,180,2013-01-11 13:31:00
7:51 AM,33.8,30.2,87,29.52,1.8,South,3.5,-,N/A,,Light Drizzle,170,2013-01-11 13:51:00
8:11 AM,33.8,30.2,87,29.51,0.8,Calm,Calm,-,N/A,,Light Drizzle,0,2013-01-11 14:11:00
8:31 AM,33.8,30.2,87,29.52,0.8,South,3.5,-,N/A,,Haze,170,2013-01-11 14:31:00
8:51 AM,33.8,30.2,87,29.52,0.8,South,4.6,-,N/A,,Haze,180,2013-01-11 14:51:00
9:11 AM,33.8,32.0,93,29.52,0.8,SSE,3.5,-,N/A,,Overcast,160,2013-01-11 15:11:00
9:31 AM,33.8,32.0,93,29.52,0.8,SSE,5.8,-,N/A,,Overcast,160,2013-01-11 15:31:00
9:51 AM,33.8,32.0,93,29.52,1.0,South,5.8,-,N/A,,Overcast,190,2013-01-11 15:51:00
10:11 AM,33.8,32.0,93,29.52,1.0,SSE,3.5,-,N/A,,Overcast,150,2013-01-11 16:11:00
10:31 AM,33.8,32.0,93,29.52,1.0,Calm,Calm,-,N/A,,Overcast,0,2013-01-11 16:31:00
10:51 AM,35.6,32.0,87,29.52,1.5,South,3.5,-,N/A,,Haze,170,2013-01-11 16:51:00
11:31 AM,35.6,32.0,87,29.50,1.0,South,3.5,-,N/A,,Overcast,180,2013-01-11 17:31:00
11:51 AM,35.6,32.0,87,29.49,0.8,South,3.5,-,N/A,,Overcast,180,2013-01-11 17:51:00
12:11 PM,35.6,32.0,87,29.48,1.0,SSE,3.5,-,N/A,,Overcast,160,2013-01-11 18:11:00
12:31 PM,35.6,32.0,87,29.47,1.5,SSE,3.5,-,N/A,,Overcast,160,2013-01-11 18:31:00
12:51 PM,35.6,32.0,87,29.45,1.2,Calm,Calm,-,N/A,,Overcast,0,2013-01-11 18:51:00
1:11 PM,35.6,32.0,87,29.45,1.8,South,3.5,-,N/A,,Overcast,170,2013-01-11 19:11:00
1:31 PM,35.6,32.0,87,29.45,2.0,Calm,Calm,-,N/A,,Overcast,0,2013-01-11 19:31:00
2:11 PM,35.6,32.0,87,29.44,1.5,SSE,3.5,-,N/A,,Overcast,150,2013-01-11 20:11:00
2:31 PM,35.6,32.0,87,29.45,1.0,South,3.5,-,N/A,,Overcast,180,2013-01-11 20:31:00
2:51 PM,35.6,32.0,87,29.44,0.5,Calm,Calm,-,N/A,,Haze,0,2013-01-11 20:51:00
3:11 PM,35.6,32.0,87,29.44,1.0,SSE,3.5,-,N/A,,Haze,150,2013-01-11 21:11:00
3:31 PM,35.6,32.0,87,29.43,1.5,Calm,Calm,-,N/A,,Haze,0,2013-01-11 21:31:00
3:51 PM,35.6,32.0,87,29.42,2.5,Calm,Calm,-,N/A,,Haze,0,2013-01-11 21:51:00
4:11 PM,35.6,32.0,87,29.42,1.5,Calm,Calm,-,N/A,,Haze,0,2013-01-11 22:11:00
4:31 PM,35.6,32.0,87,29.41,2.0,Calm,Calm,-,N/A,,Haze,0,2013-01-11 22:31:00
4:51 PM,35.6,32.0,87,29.41,3.0,SSE,3.5,-,N/A,,Haze,160,2013-01-11 22:51:00
5:11 PM,35.6,32.0,87,29.40,2.5,SSE,3.5,-,N/A,,Haze,150,2013-01-11 23:11:00
5:31 PM,35.6,32.0,87,29.40,2.0,SSE,4.6,-,N/A,,Haze,160,2013-01-11 23:31:00
5:51 PM,35.6,32.0,87,29.40,2.0,SSE,4.6,-,N/A,,Overcast,160,2013-01-11 23:51:00
6:11 PM,35.6,32.0,87,29.40,2.0,SSE,3.5,-,N/A,,Overcast,160,2013-01-12 00:11:00
6:31 PM,35.6,32.0,87,29.39,1.8,SSE,3.5,-,N/A,,Overcast,150,2013-01-12 00:31:00
6:51 PM,35.6,32.0,87,29.38,2.0,Calm,Calm,-,N/A,,Overcast,0,2013-01-12 00:51:00
7:11 PM,35.6,32.0,87,29.37,2.5,Calm,Calm,-,N/A,,Overcast,0,2013-01-12 01:11:00
7:31 PM,35.6,32.0,87,29.37,2.0,Calm,Calm,-,N/A,,Drizzle,0,2013-01-12 01:31:00
7:51 PM,35.6,32.0,87,29.36,2.0,Calm,Calm,-,0.01,,Drizzle,0,2013-01-12 01:51:00
8:11 PM,35.6,32.0,87,29.35,2.0,Calm,Calm,-,N/A,,Drizzle,0,2013-01-12 02:11:00
8:31 PM,35.6,32.0,87,29.34,2.5,Calm,Calm,-,N/A,,Drizzle,0,2013-01-12 02:31:00
8:51 PM,35.6,32.0,87,29.34,2.0,South,3.5,-,0.01,,Heavy Drizzle,190,2013-01-12 02:51:00
9:11 PM,35.6,32.0,87,29.34,4.0,Calm,Calm,-,0.01,,Drizzle,0,2013-01-12 03:11:00
9:31 PM,35.6,32.0,87,29.33,3.0,Calm,Calm,-,0.01,,Light Drizzle,0,2013-01-12 03:31:00
9:51 PM,37.4,32.0,81,29.32,2.5,Calm,Calm,-,0.01,,Haze,0,2013-01-12 03:51:00
10:11 PM,37.4,32.0,81,29.31,4.0,Calm,Calm,-,N/A,,Haze,0,2013-01-12 04:11:00
10:31 PM,37.4,33.8,87,29.30,4.0,South,3.5,-,N/A,,Overcast,180,2013-01-12 04:31:00
10:51 PM,37.4,33.8,87,29.29,2.5,South,3.5,-,N/A,,Overcast,180,2013-01-12 04:51:00
11:11 PM,37.4,33.8,87,29.28,3.0,South,6.9,-,N/A,,Haze,180,2013-01-12 05:11:00
11:31 PM,37.4,33.8,87,29.28,4.0,SSW,11.5,-,N/A,,Overcast,200,2013-01-12 05:31:00
11:51 PM,39.2,33.8,81,29.28,3.0,SSW,10.4,-,N/A,,Haze,200,2013-01-12 05:51:00